Terminal Aerodrome Forecast
Issued by NWS

Home | Current Version | Previous Version | Text Only | Print | Product List | Glossary On
Versions: 1 2 3 4 5 6 7 8 9 10 11 12 13 14 15
000
FTUS41 KPHI 211700
TAFPNE
TAF
KPNE 211738Z 2118/2218 18007KT P6SM BKN040
      TEMPO 2123/2202 30015KT 4SM TSRA BR BKN025CB
     FM220200 VRB03KT P6SM BKN060
     FM221000 08003KT 5SM BR BKN015
     FM221400 07005KT P6SM BKN025=

USA.gov is the U.S. government's official web portal to all federal, state and local government web resources and services.